[[{"header":{"parameterUnit":"m.s-1","parameterCategory":1,"la1":30.2992,"la2":30.254,"lo1":-89.0895,"lo2":-89.0443,"dy":0.0025,"dx":0.0025,"nx":19,"ny":19,"refTime":"2026-05-17T03:00:00:Z","depth":0,"parameterNumber":2,"parameterNumberName":"U-component_of_WINDS"},"data":[0,0,0,-2.3622,-2.3623,-2.3706,-2.3706,-2.3815,-2.3816,0,0,0,0,0,0,0,0,0,0,0,-2.3599,-2.3599,-2.3621,-2.3624,-2.3706,-2.3706,-2.3815,-2.3816,0,0,0,0,0,0,0,0,0,0,0,-2.3598,-2.3599,-2.36,-2.3624,-2.3706,-2.3706,-2.3814,-2.3751,0,0,0,0,0,0,0,0,0,0,-2.367,-2.3651,-2.3599,-2.36,-2.3624,-2.3706,-2.3706,-2.3748,-2.3755,-2.3779,0,-2.38,0,-2.3809,-2.3823,-2.3824,0,0,0,-2.3623,-2.3645,-2.3666,-2.36,-2.3625,-2.3706,-2.3668,-2.3752,-2.376,-2.3788,-2.3801,-2.3805,-2.3811,-2.3824,-2.3824,-2.3962,-2.3962,0,0,-2.3618,-2.3615,-2.366,-2.3671,-2.3658,-2.3666,-2.3671,-2.3757,-2.3771,-2.3802,-2.3808,-2.3813,-2.3825,-2.3825,-2.3961,-2.3962,0,0,0,-2.3606,-2.3611,-2.363,-2.3667,-2.3681,-2.3668,-2.3674,-2.3767,-2.3774,-2.3809,-2.3814,-2.3825,-2.3827,-2.396,-2.3961,-2.3991,0,0,0,-2.3603,-2.3604,-2.3628,-2.3627,-2.368,-2.3725,-2.3683,-2.3768,-2.3777,-2.3814,-2.3825,-2.3828,-2.396,-2.3961,-2.3989,-2.4006,0,0,0,-2.3593,-2.3603,-2.3615,-2.3626,-2.3662,-2.3724,-2.3735,-2.377,-2.3781,-2.3824,-2.3828,-2.3959,-2.3961,-2.3987,-2.4003,-2.4041,0,0,0,-2.3581,-2.3642,-2.3616,-2.3685,-2.3661,-2.3742,-2.3735,-2.3795,-2.3836,-2.3826,-2.396,-2.3961,-2.3986,-2.4001,-2.4038,-2.4072,-2.4085,0,0,-2.3656,-2.3651,-2.3692,-2.3671,-2.3755,-2.373,-2.3819,-2.3859,-2.3867,-2.393,-2.3933,-2.399,-2.4002,-2.404,-2.4164,-2.4175,0,0,0,-2.3714,-2.3744,-2.3767,-2.3805,-2.3836,-2.3865,-2.3892,-2.3907,-2.396,-2.3898,-2.4014,-2.4022,-2.4044,-2.406,-2.407,-2.4089,-2.3969,-2.3969,-2.3968,-2.3815,-2.382,-2.3889,-2.3904,-2.3941,-2.3967,-2.3998,-2.4022,-2.4018,-2.4045,-2.4064,-2.4139,-2.4157,-2.4164,-2.4184,-2.4083,-2.4083,-2.4083,-2.4083,-2.3924,-2.3966,-2.3958,-2.4021,-2.4027,-2.408,-2.4108,-2.4103,-2.4153,-2.4125,-2.4145,-2.4114,-2.4176,-2.4193,-2.4085,-2.4085,-2.4085,-2.4084,-2.4084,-2.399,-2.4011,-2.4028,-2.4082,-2.4123,-2.4137,-2.4185,-2.4189,-2.4193,-2.4213,-2.4232,-2.4232,-2.4231,-2.4222,-2.4222,-2.4222,-2.4222,-2.4223,-2.4223,-2.4052,-2.407,-2.411,-2.4148,-2.4172,-2.4204,-2.4231,-2.4255,-2.4282,-2.4281,-2.4281,-2.4274,-2.4181,-2.4157,-2.4227,-2.4226,-2.4226,-2.4225,-2.4225,-2.4161,-2.4136,-2.4198,-2.4222,-2.4266,-2.4306,-2.431,-2.4358,-2.4379,-2.4402,-2.439,-2.4321,-2.4317,-2.4309,-2.429,-2.4389,-2.4389,-2.4389,-2.4389,-2.4216,-2.4214,-2.4277,-2.4315,-2.4352,-2.4361,-2.4431,-2.4452,-2.447,-2.4483,-2.4469,-2.4443,-2.4436,-2.4436,-2.4426,-2.4407,-2.4535,-2.4535,-2.4535,-2.4283,-2.4284,-2.4342,-2.4358,-2.4393,-2.4423,-2.4487,-2.4531,-2.4547,-2.4541,-2.4493,-2.4487,-2.4445,-2.4432,-2.4424,-2.4409,-2.4375,0,0]},{"header":{"parameterUnit":"m.s-1","parameterCategory":1,"la1":30.2992,"la2":30.254,"lo1":-89.0895,"lo2":-89.0443,"dy":0.0025,"dx":0.0025,"nx":19,"ny":19,"refTime":"2026-05-17T03:00:00:Z","depth":0,"parameterNumber":3,"parameterNumberName":"V-component_of_WINDS"},"data":[0,0,0,4.4118,4.412,4.4198,4.4198,4.4311,4.4312,0,0,0,0,0,0,0,0,0,0,0,4.4105,4.4106,4.4118,4.412,4.4198,4.4198,4.4311,4.4312,0,0,0,0,0,0,0,0,0,0,0,4.4105,4.4106,4.4107,4.412,4.4198,4.4198,4.431,4.4246,0,0,0,0,0,0,0,0,0,0,4.4168,4.4167,4.4106,4.4107,4.4121,4.4198,4.4198,4.4243,4.425,4.4282,0,4.4315,0,4.4316,4.4321,4.4321,0,0,0,4.4111,4.4161,4.4173,4.4108,4.4122,4.4198,4.416,4.4247,4.4255,4.4292,4.4316,4.432,4.4317,4.4321,4.4322,4.4537,4.4539,0,0,4.4107,4.4124,4.4167,4.4179,4.4171,4.4158,4.4163,4.4252,4.4279,4.4317,4.4323,4.4319,4.4322,4.4323,4.4536,4.4538,0,0,0,4.41,4.4122,4.4131,4.4175,4.4188,4.416,4.4166,4.4275,4.4276,4.4324,4.4321,4.4323,4.4325,4.4534,4.4537,4.4622,0,0,0,4.4097,4.4118,4.4129,4.4141,4.4187,4.4233,4.4188,4.427,4.428,4.432,4.4323,4.4326,4.4533,4.4536,4.4616,4.4659,0,0,0,4.4096,4.4117,4.4133,4.4141,4.4176,4.4231,4.4238,4.4272,4.4279,4.4321,4.4326,4.4532,4.4535,4.4611,4.465,4.4719,0,0,0,4.41,4.4208,4.4134,4.4253,4.4176,4.4285,4.4237,4.4317,4.4364,4.4324,4.4533,4.4536,4.461,4.4645,4.4714,4.4779,4.4808,0,0,4.4245,4.4226,4.4294,4.4231,4.4358,4.4271,4.441,4.4436,4.4423,4.4499,4.4504,4.4618,4.465,4.4718,4.497,4.4993,0,0,0,4.4346,4.4395,4.4425,4.4472,4.4495,4.4518,4.4521,4.453,4.4594,4.4467,4.4662,4.468,4.4719,4.4749,4.4769,4.4801,4.4552,4.4551,4.4551,4.4575,4.4555,4.4666,4.4655,4.47,4.4702,4.4736,4.4748,4.4714,4.476,4.4782,4.4937,4.4974,4.4988,4.5021,4.4816,4.4817,4.4817,4.4817,4.4785,4.485,4.4802,4.4893,4.4869,4.4944,4.495,4.4923,4.4987,4.492,4.4953,4.4879,4.5015,4.5042,4.4823,4.4822,4.4821,4.4821,4.482,4.4931,4.4959,4.4969,4.5033,4.5084,4.5068,4.5132,4.5109,4.5087,4.512,4.5139,4.5138,4.5131,4.5131,4.5132,4.5133,4.5133,4.5133,4.5134,4.5078,4.5087,4.5145,4.5179,4.5204,4.5235,4.5238,4.5262,4.5282,4.5259,4.5259,4.5218,4.5033,4.4986,4.5142,4.514,4.5139,4.5139,4.5138,4.5294,4.5241,4.5331,4.5357,4.5393,4.5444,4.5414,4.5464,4.5481,4.5513,4.5465,4.5333,4.531,4.5294,4.5255,4.5471,4.5471,4.5471,4.5471,4.5416,4.5403,4.5488,4.5531,4.557,4.5551,4.565,4.5653,4.5647,4.5655,4.5621,4.5567,4.5552,4.5538,4.5517,4.5479,4.5748,4.5749,4.5749,4.5547,4.5536,4.5626,4.5621,4.5648,4.567,4.5762,4.581,4.5793,4.5759,4.5661,4.5649,4.5562,4.5535,4.5498,4.5465,4.5396,0,0]}]]